Overview Statistics Trail Chart Weather Telemetry Raw packets
 

This is the latest recevied weather packets stored in our database for station/object K7OWW-2. If no packets are shown the sender has not sent any weather packets the latest 10 day(s).

<< 32 33 34 35 36 37 38 >>
Time Temp. Humidity Pressure Rain* Wind** Luminosity Snow
1788067137 6.67° C 77% 1018.6 hPa 0 mm - - -
1788066839 7.22° C 76% 1018.5 hPa 0 mm - - -
1788066537 7.22° C 76% 1018.5 hPa 0 mm - - -
1788065937 7.78° C 76% 1018.5 hPa 0 mm - - -
1788065337 7.78° C 75% 1018.6 hPa 0 mm - - -
1788065039 8.33° C 74% 1018.6 hPa 0 mm - - -
1788064737 8.33° C 73% 1018.4 hPa 0 mm - - -
1788064137 8.33° C 73% 1018.3 hPa 0 mm - - -
1788063537 8.89° C 71% 1018.1 hPa 0 mm - - -
1788063239 8.89° C 71% 1018 hPa 0 mm - - -
1788062937 8.89° C 71% 1018 hPa 0 mm - - -
1788062337 9.44° C 69% 1017.9 hPa 0 mm - - -
1788061737 9.44° C 69% 1017.7 hPa 0 mm - - -
1788061439 10° C 68% 1017.6 hPa 0 mm - - -
1788061137 10° C 67% 1017.5 hPa 0 mm - - -
1788060538 10.56° C 66% 1017.4 hPa 0 mm - - -
1788059937 10.56° C 65% 1017.2 hPa 0 mm - - -
1788059639 10.56° C 65% 1017.1 hPa 0 mm - - -
1788059337 11.11° C 64% 1016.9 hPa 0 mm - - -
1788058737 11.11° C 63% 1016.8 hPa 0 mm - - -
1788058137 11.67° C 62% 1016.7 hPa 0 mm - - -
1788057839 11.67° C 62% 1016.7 hPa 0 mm - - -
1788057537 12.22° C 61% 1016.6 hPa 0 mm - - -
1788056937 12.22° C 60% 1016.5 hPa 0 mm - - -
1788056337 12.78° C 60% 1016.4 hPa 0 mm - - -

* Rain latest hour (hover to see other rain measurements)
** Current wind speed in m/s (hover to see current wind gust speed)